World > North America > United States > Minnesota

Hourly Collegeville, MN Regional Weather

Feedback E-mail the Weather

Quick WX

Collegeville, MN Weather Maps

°F °C°F °C
Collegeville Weather Map
UTC Time: 7/7/2022, 05:05
Your Time:

Collegeville, MN Regional Weather

Expires:202207070500;;877142
ASUS43 KMPX 070410
RWRMN 
WEATHER ROUNDUP FOR MINNESOTA
NATIONAL WEATHER SERVICE TWIN CITIES/CHANHASSEN MN
1100 PM CDT WED JUL 06 2022


NOTE: "FAIR" INDICATES FEW OR NO CLOUDS BELOW 12,000 FEET WITH NO
SIGNIFICANT WEATHER AND/OR OBSTRUCTIONS TO VISIBILITY. N/A MEANS
CURRENT SKY AND/OR WEATHER CONDITIONS ARE NOT AVAILABLE.


MNZ033>034-036-042>043-049>051-058-059-070500-
   Central Minnesota     
  
CITY           SKY/WX    TMP DP  RH WIND       PRES   REMARKS
ST CLOUD       PTCLDY    68  66  93 NE5       30.02R                  
SAUK CENTRE    FAIR      67  67  97 CALM      30.03R                  
PAYNESVILLE    PTCLDY    68  66  94 CALM      30.04R                  
AITKIN         CLOUDY    64  57  77 E3        30.05S                  
PINE RIVER       N/A     66  61  82 CALM      30.07R                  
BRAINERD       CLEAR     69  63  81 SE6       30.04R                  
STAPLES          N/A     70  64  83 CALM      30.03S                  
LONG PRAIRIE   FAIR      64  64 100 CALM      30.05R                  
LITCHFIELD     MOCLDY    73  70  88 CALM      30.03R                  
BUFFALO        CLOUDY    68  66  94 CALM      30.02R                  
MAPLE LAKE     PTCLDY    68  63  83 CALM      30.03R                  
HUTCHINSON     MOCLDY    71  69  92 CALM      30.03S                  
$$

SKY/WX - Weather  TMP - Temperature  DP - Dew Point  RH - Humidity
WIND - Wind Direction/Speed PRES - Barometric Pressure VSB - Visibility
WCI - Wind Chill Index E13G22 Wind - East Wind 13 mph/Gusts of 22 mph

Trending Headlines

Collegeville Radar Loop



Collegeville Quick Facts


National Two Day Weather Forecast


E-mail the Collegeville Weather Forecast

Voice your opinion or tell us about page issues...